5NBSK GQNO-GQPP

Flight info

Callsign 5NBSK
Flight time 1h 29m
Altitude 6000
Route BOTLO A600 ERENA
Aircraft A139/L-SDG/C

Departure

Time 2026-04-29 09:18
Airport Nouakchott–Oumtounsy International Airport (GQNO)

Arrival

Time 2026-04-29 10:48
Airport Nouadhibou International Airport (GQPP)
Time Latitude Longitude Altitude Speed Heading
2026-04-29 09:06 18.30923 -15.96447 5 ft 0 kts 160°
2026-04-29 09:07 18.29364 -15.95543 5 ft 0 kts 330°
2026-04-29 09:15 18.29369 -15.95542 5 ft 1 kts 35°
2026-04-29 09:15 18.29357 -15.95533 5 ft 3 kts 174°
2026-04-29 09:15 18.29331 -15.95522 5 ft 5 kts 151°
2026-04-29 09:16 18.29287 -15.95518 5 ft 7 kts 207°
2026-04-29 09:16 18.29250 -15.95562 5 ft 9 kts 241°
2026-04-29 09:16 18.29219 -15.95617 6 ft 7 kts 239°
2026-04-29 09:16 18.29192 -15.95665 8 ft 7 kts 242°
2026-04-29 09:17 18.29165 -15.95713 8 ft 7 kts 242°
2026-04-29 09:17 18.29141 -15.95758 8 ft 6 kts 239°
2026-04-29 09:17 18.29122 -15.95801 8 ft 6 kts 263°
2026-04-29 09:17 18.29140 -15.95832 8 ft 4 kts 333°
2026-04-29 09:18 18.29162 -15.95846 9 ft 3 kts 331°
2026-04-29 09:18 18.29255 -15.95924 69 ft 42 kts 339°
2026-04-29 09:18 18.29654 -15.96134 287 ft 77 kts 328°
2026-04-29 09:18 18.30135 -15.96427 654 ft 81 kts 326°
2026-04-29 09:19 18.30603 -15.96734 931 ft 79 kts 326°
2026-04-29 09:19 18.31105 -15.97000 1167 ft 81 kts 332°
2026-04-29 09:19 18.31625 -15.97242 1410 ft 82 kts 333°
2026-04-29 09:19 18.32145 -15.97479 1650 ft 83 kts 334°
2026-04-29 09:20 18.32670 -15.97723 1902 ft 82 kts 338°
2026-04-29 09:20 18.33202 -15.97959 2135 ft 83 kts 342°
2026-04-29 09:20 18.33757 -15.98193 2336 ft 90 kts 341°
2026-04-29 09:20 18.34362 -15.98447 2494 ft 98 kts 339°
2026-04-29 09:21 18.35035 -15.98738 2584 ft 109 kts 337°
2026-04-29 09:21 18.35782 -15.99065 2645 ft 122 kts 338°
2026-04-29 09:21 18.36597 -15.99423 2771 ft 128 kts 338°
2026-04-29 09:21 18.37423 -15.99777 2925 ft 128 kts 336°
2026-04-29 09:22 18.38254 -16.00143 3051 ft 128 kts 335°
2026-04-29 09:22 18.39079 -16.00506 3171 ft 129 kts 335°
2026-04-29 09:22 18.39914 -16.00875 3286 ft 130 kts 335°
2026-04-29 09:22 18.40758 -16.01244 3409 ft 130 kts 335°
2026-04-29 09:23 18.41589 -16.01609 3523 ft 131 kts 335°
2026-04-29 09:23 18.42441 -16.01982 3643 ft 131 kts 334°
2026-04-29 09:23 18.43285 -16.02352 3761 ft 132 kts 334°
2026-04-29 09:23 18.44142 -16.02726 3887 ft 133 kts 334°
2026-04-29 09:24 18.44999 -16.03102 4001 ft 134 kts 334°
2026-04-29 09:24 18.45871 -16.03483 4130 ft 134 kts 333°
2026-04-29 09:24 18.46734 -16.03863 4243 ft 134 kts 333°
2026-04-29 09:24 18.47600 -16.04242 4367 ft 134 kts 333°
2026-04-29 09:25 18.48474 -16.04626 4483 ft 135 kts 332°
2026-04-29 09:25 18.49338 -16.05005 4604 ft 135 kts 332°
2026-04-29 09:25 18.50219 -16.05391 4727 ft 135 kts 332°
2026-04-29 09:25 18.51094 -16.05775 4843 ft 136 kts 331°
2026-04-29 09:26 18.51967 -16.06157 4962 ft 136 kts 331°
2026-04-29 09:26 18.52853 -16.06546 5077 ft 137 kts 331°
2026-04-29 09:26 18.53740 -16.06934 5198 ft 138 kts 330°
2026-04-29 09:26 18.54625 -16.07323 5316 ft 138 kts 330°
2026-04-29 09:27 18.55522 -16.07718 5434 ft 139 kts 330°
2026-04-29 09:27 18.56422 -16.08111 5559 ft 139 kts 329°
2026-04-29 09:27 18.57308 -16.08500 5677 ft 139 kts 329°
2026-04-29 09:27 18.58211 -16.08897 5792 ft 140 kts 329°
2026-04-29 09:28 18.59112 -16.09292 5909 ft 140 kts 328°
2026-04-29 09:28 18.60014 -16.09688 6019 ft 140 kts 327°
2026-04-29 09:28 18.60925 -16.10087 6041 ft 140 kts 326°
2026-04-29 09:28 18.61826 -16.10483 6044 ft 140 kts 326°
2026-04-29 09:29 18.62730 -16.10881 6029 ft 141 kts 326°
2026-04-29 09:29 18.64541 -16.11677 6015 ft 141 kts 327°
2026-04-29 09:29 18.65454 -16.12077 6004 ft 141 kts 326°
2026-04-29 09:30 18.66359 -16.12477 6002 ft 141 kts 327°
2026-04-29 09:30 18.67272 -16.12877 6008 ft 141 kts 327°
2026-04-29 09:30 18.68191 -16.13280 6009 ft 141 kts 327°
2026-04-29 09:30 18.69103 -16.13682 6008 ft 142 kts 327°
2026-04-29 09:31 18.70004 -16.14078 6008 ft 141 kts 327°
2026-04-29 09:31 18.70926 -16.14483 6011 ft 141 kts 326°
2026-04-29 09:31 18.71827 -16.14879 6012 ft 141 kts 326°
2026-04-29 09:31 18.72747 -16.15284 6008 ft 141 kts 326°
2026-04-29 09:32 18.73655 -16.15684 6002 ft 141 kts 326°
2026-04-29 09:32 18.74554 -16.16080 6006 ft 141 kts 326°
2026-04-29 09:32 18.75471 -16.16482 6010 ft 140 kts 326°
2026-04-29 09:32 18.76371 -16.16878 6005 ft 140 kts 326°
2026-04-29 09:33 18.77281 -16.17279 6005 ft 141 kts 326°
2026-04-29 09:33 18.78186 -16.17676 6013 ft 140 kts 326°
2026-04-29 09:33 18.79083 -16.18071 6013 ft 141 kts 326°
2026-04-29 09:33 18.79989 -16.18469 6012 ft 141 kts 326°
2026-04-29 09:34 18.80899 -16.18871 6005 ft 141 kts 326°
2026-04-29 09:34 18.81808 -16.19272 6006 ft 141 kts 327°
2026-04-29 09:34 18.82719 -16.19672 6003 ft 142 kts 327°
2026-04-29 09:34 18.83645 -16.20080 6008 ft 142 kts 327°
2026-04-29 09:35 18.84556 -16.20481 6018 ft 141 kts 326°
2026-04-29 09:35 18.85465 -16.20882 6013 ft 142 kts 326°
2026-04-29 09:35 18.86381 -16.21286 6015 ft 141 kts 327°
2026-04-29 09:35 18.87285 -16.21683 6009 ft 141 kts 326°
2026-04-29 09:36 18.88199 -16.22086 6004 ft 141 kts 326°
2026-04-29 09:36 18.89109 -16.22488 6004 ft 141 kts 326°
2026-04-29 09:36 18.90019 -16.22888 6017 ft 141 kts 326°
2026-04-29 09:36 18.90927 -16.23288 6007 ft 141 kts 326°
2026-04-29 09:37 18.91835 -16.23689 6005 ft 141 kts 326°
2026-04-29 09:37 18.92755 -16.24095 6009 ft 141 kts 326°
2026-04-29 09:37 18.93661 -16.24494 6015 ft 141 kts 326°
2026-04-29 09:37 18.94563 -16.24892 6007 ft 141 kts 326°
2026-04-29 09:38 18.95468 -16.25292 6005 ft 141 kts 326°
2026-04-29 09:38 18.96382 -16.25696 6000 ft 141 kts 326°
2026-04-29 09:38 18.97297 -16.26099 6005 ft 141 kts 326°
2026-04-29 09:38 18.98209 -16.26503 6000 ft 141 kts 326°
2026-04-29 09:39 18.99122 -16.26905 6009 ft 141 kts 326°
2026-04-29 09:39 19.00029 -16.27307 6007 ft 141 kts 326°
2026-04-29 09:39 19.00937 -16.27708 6009 ft 141 kts 327°
2026-04-29 09:39 19.01836 -16.28104 6012 ft 141 kts 327°
2026-04-29 09:40 19.02752 -16.28509 6011 ft 141 kts 327°
2026-04-29 09:40 19.03666 -16.28913 6013 ft 142 kts 327°
2026-04-29 09:40 19.04582 -16.29318 6007 ft 142 kts 327°
2026-04-29 09:40 19.05495 -16.29719 6005 ft 142 kts 326°
2026-04-29 09:41 19.06415 -16.30126 6006 ft 142 kts 326°
2026-04-29 09:41 19.07324 -16.30527 6000 ft 142 kts 326°
2026-04-29 09:41 19.08233 -16.30929 6007 ft 142 kts 326°
2026-04-29 09:41 19.09157 -16.31336 6021 ft 141 kts 326°
2026-04-29 09:42 19.10060 -16.31736 6016 ft 141 kts 326°
2026-04-29 09:42 19.10972 -16.32142 6012 ft 141 kts 326°
2026-04-29 09:42 19.11877 -16.32543 6009 ft 141 kts 326°
2026-04-29 09:42 19.12792 -16.32951 6005 ft 141 kts 326°
2026-04-29 09:43 19.13696 -16.33353 6009 ft 141 kts 327°
2026-04-29 09:43 19.14613 -16.33758 6011 ft 141 kts 327°
2026-04-29 09:43 19.15520 -16.34161 6013 ft 140 kts 327°
2026-04-29 09:43 19.16426 -16.34563 6001 ft 141 kts 327°
2026-04-29 09:44 19.17330 -16.34964 6001 ft 141 kts 327°
2026-04-29 09:44 19.18240 -16.35366 6009 ft 141 kts 327°
2026-04-29 09:44 19.19159 -16.35772 6011 ft 142 kts 327°
2026-04-29 09:44 19.20083 -16.36180 6015 ft 143 kts 327°
2026-04-29 09:45 19.20991 -16.36581 6010 ft 142 kts 327°
2026-04-29 09:45 19.21910 -16.36989 6006 ft 143 kts 327°
2026-04-29 09:45 19.22831 -16.37396 6005 ft 143 kts 327°
2026-04-29 09:45 19.23757 -16.37804 6015 ft 142 kts 327°
2026-04-29 09:46 19.24671 -16.38211 6012 ft 142 kts 327°
2026-04-29 09:46 19.25580 -16.38613 6014 ft 142 kts 326°
2026-04-29 09:46 19.26499 -16.39020 6017 ft 142 kts 326°
2026-04-29 09:46 19.27412 -16.39426 6021 ft 142 kts 326°
2026-04-29 09:47 19.28321 -16.39829 6026 ft 141 kts 326°
2026-04-29 09:47 19.29243 -16.40237 6021 ft 141 kts 326°
2026-04-29 09:47 19.30139 -16.40636 6008 ft 141 kts 327°
2026-04-29 09:47 19.31056 -16.41041 6013 ft 140 kts 327°
2026-04-29 09:48 19.31967 -16.41448 6004 ft 141 kts 327°
2026-04-29 09:48 19.32873 -16.41850 5993 ft 142 kts 327°
2026-04-29 09:48 19.33793 -16.42256 6001 ft 142 kts 327°
2026-04-29 09:48 19.34716 -16.42665 6012 ft 142 kts 327°
2026-04-29 09:49 19.35644 -16.43031 6012 ft 143 kts 330°
2026-04-29 09:49 19.36588 -16.43396 6017 ft 144 kts 330°
2026-04-29 09:49 19.37529 -16.43758 6023 ft 143 kts 330°
2026-04-29 09:49 19.38480 -16.44124 6021 ft 144 kts 330°
2026-04-29 09:50 19.39426 -16.44486 6019 ft 143 kts 330°
2026-04-29 09:50 19.40369 -16.44851 6015 ft 143 kts 330°
2026-04-29 09:50 19.41302 -16.45208 6014 ft 143 kts 330°
2026-04-29 09:50 19.42248 -16.45572 6010 ft 143 kts 330°
2026-04-29 09:51 19.43190 -16.45935 6014 ft 143 kts 330°
2026-04-29 09:51 19.44126 -16.46294 6028 ft 142 kts 330°
2026-04-29 09:51 19.45068 -16.46656 6027 ft 142 kts 330°
2026-04-29 09:51 19.45994 -16.47013 6021 ft 142 kts 330°
2026-04-29 09:52 19.46944 -16.47380 6020 ft 143 kts 330°
2026-04-29 09:52 19.47879 -16.47740 6019 ft 143 kts 330°
2026-04-29 09:52 19.48814 -16.48099 6020 ft 143 kts 330°
2026-04-29 09:52 19.49769 -16.48467 6026 ft 143 kts 331°
2026-04-29 09:53 19.50711 -16.48828 6025 ft 143 kts 330°
2026-04-29 09:53 19.51650 -16.49190 6019 ft 144 kts 331°
2026-04-29 09:53 19.52594 -16.49553 6018 ft 143 kts 330°
2026-04-29 09:53 19.53529 -16.49912 6018 ft 143 kts 330°
2026-04-29 09:54 19.54475 -16.50276 6019 ft 144 kts 331°
2026-04-29 09:54 19.55426 -16.50642 6030 ft 143 kts 331°
2026-04-29 09:54 19.56359 -16.51001 6028 ft 143 kts 331°
2026-04-29 09:54 19.57298 -16.51364 6027 ft 143 kts 331°
2026-04-29 09:55 19.58235 -16.51725 6025 ft 143 kts 331°
2026-04-29 09:55 19.59183 -16.52089 6026 ft 143 kts 331°
2026-04-29 09:55 19.60118 -16.52448 6026 ft 143 kts 331°
2026-04-29 09:55 19.61054 -16.52810 6026 ft 143 kts 331°
2026-04-29 09:56 19.61990 -16.53171 6029 ft 143 kts 331°
2026-04-29 09:56 19.62928 -16.53531 6024 ft 143 kts 331°
2026-04-29 09:56 19.63879 -16.53898 6026 ft 143 kts 331°
2026-04-29 09:56 19.64817 -16.54260 6022 ft 143 kts 331°
2026-04-29 09:57 19.65758 -16.54623 6020 ft 144 kts 331°
2026-04-29 09:57 19.66698 -16.54985 6019 ft 144 kts 331°
2026-04-29 09:57 19.67653 -16.55352 6015 ft 144 kts 331°
2026-04-29 09:57 19.68595 -16.55716 6014 ft 144 kts 331°
2026-04-29 09:58 19.69534 -16.56079 6023 ft 143 kts 331°
2026-04-29 09:58 19.70479 -16.56443 6010 ft 143 kts 331°
2026-04-29 09:58 19.71413 -16.56805 6006 ft 143 kts 331°
2026-04-29 09:58 19.72351 -16.57164 6008 ft 142 kts 331°
2026-04-29 09:59 19.73281 -16.57524 6001 ft 143 kts 331°
2026-04-29 09:59 19.74227 -16.57891 6012 ft 143 kts 332°
2026-04-29 09:59 19.75170 -16.58253 6025 ft 143 kts 332°
2026-04-29 09:59 19.76102 -16.58613 6022 ft 143 kts 331°
2026-04-29 10:00 19.77055 -16.58979 6020 ft 143 kts 331°
2026-04-29 10:00 19.77983 -16.59340 6016 ft 143 kts 331°
2026-04-29 10:00 19.78936 -16.59708 6005 ft 143 kts 332°
2026-04-29 10:00 19.79874 -16.60070 6010 ft 143 kts 332°
2026-04-29 10:01 19.80822 -16.60435 6016 ft 143 kts 331°
2026-04-29 10:01 19.81756 -16.60795 6020 ft 143 kts 332°
2026-04-29 10:01 19.82701 -16.61161 6023 ft 143 kts 331°
2026-04-29 10:01 19.83642 -16.61524 6023 ft 143 kts 332°
2026-04-29 10:02 19.84577 -16.61888 6027 ft 143 kts 332°
2026-04-29 10:02 19.85515 -16.62250 6020 ft 143 kts 332°
2026-04-29 10:02 19.86469 -16.62618 6018 ft 143 kts 332°
2026-04-29 10:02 19.87396 -16.62976 5999 ft 143 kts 332°
2026-04-29 10:03 19.88348 -16.63345 6000 ft 143 kts 332°
2026-04-29 10:03 19.89288 -16.63707 6003 ft 143 kts 332°
2026-04-29 10:03 19.90233 -16.64073 6012 ft 143 kts 332°
2026-04-29 10:03 19.91165 -16.64432 6023 ft 143 kts 332°
2026-04-29 10:04 19.92115 -16.64802 6028 ft 143 kts 332°
2026-04-29 10:04 19.93055 -16.65163 6028 ft 143 kts 331°
2026-04-29 10:04 19.93995 -16.65526 6025 ft 143 kts 331°
2026-04-29 10:04 19.94938 -16.65886 6015 ft 143 kts 331°
2026-04-29 10:05 19.95876 -16.66249 5992 ft 143 kts 331°
2026-04-29 10:05 19.96819 -16.66613 5980 ft 143 kts 331°
2026-04-29 10:05 19.97758 -16.66977 5971 ft 143 kts 332°
2026-04-29 10:05 19.98698 -16.67340 5963 ft 143 kts 332°
2026-04-29 10:06 19.99645 -16.67707 5962 ft 144 kts 332°
2026-04-29 10:06 20.00581 -16.68066 5971 ft 143 kts 332°
2026-04-29 10:06 20.01527 -16.68433 5971 ft 143 kts 332°
2026-04-29 10:06 20.02460 -16.68793 5973 ft 143 kts 332°
2026-04-29 10:07 20.03408 -16.69159 5971 ft 143 kts 332°
2026-04-29 10:07 20.04337 -16.69521 5971 ft 143 kts 332°
2026-04-29 10:07 20.05286 -16.69889 5977 ft 143 kts 332°
2026-04-29 10:07 20.06222 -16.70251 5986 ft 143 kts 332°
2026-04-29 10:08 20.07166 -16.70616 5979 ft 144 kts 332°
2026-04-29 10:08 20.08115 -16.70984 5980 ft 144 kts 332°
2026-04-29 10:08 20.09066 -16.71353 5984 ft 144 kts 332°
2026-04-29 10:08 20.10007 -16.71719 5988 ft 144 kts 332°
2026-04-29 10:09 20.10951 -16.72085 5984 ft 144 kts 332°
2026-04-29 10:09 20.11895 -16.72453 5984 ft 143 kts 332°
2026-04-29 10:09 20.12836 -16.72823 5988 ft 143 kts 332°
2026-04-29 10:09 20.13780 -16.73188 5983 ft 143 kts 332°
2026-04-29 10:10 20.14711 -16.73550 5985 ft 143 kts 332°
2026-04-29 10:10 20.15658 -16.73919 5973 ft 143 kts 333°
2026-04-29 10:10 20.16593 -16.74281 5980 ft 143 kts 332°
2026-04-29 10:10 20.17537 -16.74646 5987 ft 143 kts 332°
2026-04-29 10:11 20.18475 -16.75012 5986 ft 143 kts 332°
2026-04-29 10:11 20.19409 -16.75373 5985 ft 143 kts 332°
2026-04-29 10:11 20.20349 -16.75739 5982 ft 142 kts 332°
2026-04-29 10:11 20.21289 -16.76106 5968 ft 143 kts 332°
2026-04-29 10:12 20.22225 -16.76467 5967 ft 143 kts 332°
2026-04-29 10:12 20.23171 -16.76834 5957 ft 143 kts 332°
2026-04-29 10:12 20.24106 -16.77199 5967 ft 144 kts 332°
2026-04-29 10:12 20.25059 -16.77570 5983 ft 144 kts 332°
2026-04-29 10:13 20.25995 -16.77932 5995 ft 143 kts 332°
2026-04-29 10:13 20.26934 -16.78300 5990 ft 143 kts 333°
2026-04-29 10:13 20.27884 -16.78669 5999 ft 143 kts 333°
2026-04-29 10:13 20.28820 -16.79032 6000 ft 143 kts 333°
2026-04-29 10:14 20.29760 -16.79399 5994 ft 143 kts 333°
2026-04-29 10:14 20.30698 -16.79763 5997 ft 143 kts 333°
2026-04-29 10:14 20.31632 -16.80125 5987 ft 142 kts 333°
2026-04-29 10:14 20.32581 -16.80493 5981 ft 142 kts 333°
2026-04-29 10:15 20.33518 -16.80858 5973 ft 143 kts 333°
2026-04-29 10:15 20.34458 -16.81224 5987 ft 143 kts 333°
2026-04-29 10:15 20.35397 -16.81591 5987 ft 143 kts 333°
2026-04-29 10:15 20.36344 -16.81958 5984 ft 143 kts 333°
2026-04-29 10:16 20.37278 -16.82322 5986 ft 143 kts 333°
2026-04-29 10:16 20.37900 -16.82563 5987 ft 143 kts 333°
2026-04-29 10:16 20.39150 -16.83048 5983 ft 142 kts 333°
2026-04-29 10:16 20.40093 -16.83417 5979 ft 143 kts 333°
2026-04-29 10:17 20.41024 -16.83779 5986 ft 143 kts 333°
2026-04-29 10:17 20.41970 -16.84148 5987 ft 143 kts 333°
2026-04-29 10:17 20.42904 -16.84513 5993 ft 143 kts 333°
2026-04-29 10:17 20.43840 -16.84879 6002 ft 143 kts 333°
2026-04-29 10:18 20.44789 -16.85248 6010 ft 142 kts 333°
2026-04-29 10:18 20.45721 -16.85611 6009 ft 142 kts 333°
2026-04-29 10:18 20.46662 -16.85980 6006 ft 142 kts 333°
2026-04-29 10:18 20.47593 -16.86343 6002 ft 143 kts 333°
2026-04-29 10:19 20.48529 -16.86707 5999 ft 143 kts 333°
2026-04-29 10:19 20.49472 -16.87076 6000 ft 143 kts 333°
2026-04-29 10:19 20.50418 -16.87444 5928 ft 144 kts 332°
2026-04-29 10:19 20.51374 -16.87819 5786 ft 142 kts 331°
2026-04-29 10:20 20.52284 -16.88178 5669 ft 135 kts 330°
2026-04-29 10:20 20.53146 -16.88518 5481 ft 132 kts 330°
2026-04-29 10:20 20.54010 -16.88861 5285 ft 131 kts 331°
2026-04-29 10:20 20.54867 -16.89199 5104 ft 130 kts 332°
2026-04-29 10:21 20.55714 -16.89529 4936 ft 129 kts 332°
2026-04-29 10:21 20.56561 -16.89864 4759 ft 128 kts 334°
2026-04-29 10:21 20.57395 -16.90197 4584 ft 127 kts 339°
2026-04-29 10:21 20.58239 -16.90521 4393 ft 128 kts 341°
2026-04-29 10:22 20.59063 -16.90833 4261 ft 121 kts 341°
2026-04-29 10:22 20.59838 -16.91131 4096 ft 115 kts 341°
2026-04-29 10:22 20.60596 -16.91428 3887 ft 115 kts 342°
2026-04-29 10:22 20.61337 -16.91718 3699 ft 113 kts 343°
2026-04-29 10:23 20.62077 -16.92005 3509 ft 113 kts 344°
2026-04-29 10:23 20.62815 -16.92292 3345 ft 111 kts 344°
2026-04-29 10:23 20.63523 -16.92568 3202 ft 105 kts 344°
2026-04-29 10:23 20.64197 -16.92833 3015 ft 101 kts 345°
2026-04-29 10:24 20.64862 -16.93093 2817 ft 100 kts 345°
2026-04-29 10:24 20.65511 -16.93347 2631 ft 99 kts 346°
2026-04-29 10:24 20.66155 -16.93597 2441 ft 99 kts 346°
2026-04-29 10:24 20.66801 -16.93850 2268 ft 97 kts 347°
2026-04-29 10:25 20.67433 -16.94098 2081 ft 96 kts 347°
2026-04-29 10:25 20.68064 -16.94346 1931 ft 96 kts 349°
2026-04-29 10:25 20.68683 -16.94587 1914 ft 94 kts 351°
2026-04-29 10:25 20.69306 -16.94817 1931 ft 93 kts 352°
2026-04-29 10:26 20.69943 -16.94914 1914 ft 97 kts 346°
2026-04-29 10:26 20.70549 -16.95187 1981 ft 92 kts 346°
2026-04-29 10:26 20.71158 -16.95439 1977 ft 92 kts 347°
2026-04-29 10:26 20.71770 -16.95681 1960 ft 93 kts 347°
2026-04-29 10:27 20.72383 -16.96902 1962 ft 111 kts 269°
2026-04-29 10:27 20.72192 -16.97697 1994 ft 108 kts 264°
2026-04-29 10:27 20.72009 -16.98476 1971 ft 109 kts 265°
2026-04-29 10:28 20.71846 -16.99279 1961 ft 110 kts 268°
2026-04-29 10:28 20.71714 -17.00083 1959 ft 110 kts 270°
2026-04-29 10:28 20.71616 -17.00883 1968 ft 109 kts 269°
2026-04-29 10:28 20.71533 -17.01689 2007 ft 104 kts 272°
2026-04-29 10:29 20.71486 -17.02397 2024 ft 90 kts 275°
2026-04-29 10:29 20.71465 -17.03053 1957 ft 87 kts 277°
2026-04-29 10:29 20.71465 -17.03701 1929 ft 87 kts 278°
2026-04-29 10:29 20.71481 -17.04340 1940 ft 86 kts 281°
2026-04-29 10:30 20.71514 -17.04982 1951 ft 86 kts 282°
2026-04-29 10:30 20.71564 -17.05622 1962 ft 85 kts 285°
2026-04-29 10:30 20.71632 -17.06246 1967 ft 85 kts 286°
2026-04-29 10:30 20.71719 -17.06881 1966 ft 85 kts 287°
2026-04-29 10:31 20.71822 -17.07507 1969 ft 85 kts 290°
2026-04-29 10:31 20.71939 -17.08123 1964 ft 85 kts 291°
2026-04-29 10:31 20.72029 -17.08757 1957 ft 90 kts 271°
2026-04-29 10:31 20.71756 -17.09370 1973 ft 95 kts 229°
2026-04-29 10:32 20.71168 -17.09708 1975 ft 96 kts 195°
2026-04-29 10:32 20.70528 -17.09918 1974 ft 96 kts 195°
2026-04-29 10:32 20.69883 -17.10115 1968 ft 97 kts 195°
2026-04-29 10:32 20.69235 -17.10309 1972 ft 97 kts 195°
2026-04-29 10:33 20.68579 -17.10508 1968 ft 95 kts 195°
2026-04-29 10:33 20.67937 -17.10705 1948 ft 96 kts 195°
2026-04-29 10:33 20.67289 -17.10869 1937 ft 97 kts 179°
2026-04-29 10:33 20.66683 -17.10656 1957 ft 88 kts 132°
2026-04-29 10:34 20.66397 -17.10133 1957 ft 79 kts 88°
2026-04-29 10:34 20.66543 -17.09617 1962 ft 70 kts 43°
2026-04-29 10:34 20.66989 -17.09439 1963 ft 71 kts 358°
2026-04-29 10:34 20.67488 -17.09541 1964 ft 72 kts 355°
2026-04-29 10:35 20.67979 -17.09570 1978 ft 70 kts
2026-04-29 10:35 20.68474 -17.09545 1969 ft 70 kts
2026-04-29 10:35 20.68961 -17.09487 1968 ft 69 kts
2026-04-29 10:35 20.69440 -17.09406 1968 ft 69 kts 11°
2026-04-29 10:36 20.69916 -17.09310 1962 ft 70 kts 12°
2026-04-29 10:36 20.70396 -17.09200 1962 ft 70 kts 13°
2026-04-29 10:36 20.70874 -17.09083 1967 ft 70 kts 14°
2026-04-29 10:36 20.71352 -17.08959 1969 ft 70 kts 15°
2026-04-29 10:37 20.71831 -17.08831 1971 ft 70 kts 15°
2026-04-29 10:37 20.72300 -17.08711 1974 ft 69 kts 15°
2026-04-29 10:37 20.72776 -17.08586 1959 ft 70 kts 16°
2026-04-29 10:37 20.73252 -17.08459 1963 ft 69 kts 16°
2026-04-29 10:38 20.73728 -17.08330 1963 ft 70 kts 16°
2026-04-29 10:38 20.74199 -17.08203 1964 ft 69 kts 16°
2026-04-29 10:38 20.74674 -17.08076 1972 ft 69 kts 16°
2026-04-29 10:38 20.75149 -17.07946 1969 ft 69 kts 16°
2026-04-29 10:39 20.75619 -17.07818 1969 ft 69 kts 15°
2026-04-29 10:39 20.76092 -17.07689 1968 ft 70 kts 15°
2026-04-29 10:39 20.76570 -17.07559 1973 ft 70 kts 14°
2026-04-29 10:39 20.77043 -17.07431 1974 ft 69 kts 15°
2026-04-29 10:40 20.77517 -17.07303 1967 ft 70 kts 15°
2026-04-29 10:40 20.77991 -17.07174 1972 ft 70 kts 15°
2026-04-29 10:40 20.78471 -17.07043 1971 ft 70 kts 15°
2026-04-29 10:40 20.78949 -17.06913 1979 ft 70 kts 16°
2026-04-29 10:41 20.79425 -17.06784 1967 ft 71 kts 16°
2026-04-29 10:41 20.79907 -17.06653 1969 ft 70 kts 16°
2026-04-29 10:41 20.80380 -17.06525 1976 ft 69 kts 17°
2026-04-29 10:41 20.80855 -17.06394 1964 ft 70 kts 16°
2026-04-29 10:42 20.81341 -17.06261 1968 ft 69 kts 16°
2026-04-29 10:42 20.81801 -17.06108 1991 ft 69 kts 22°
2026-04-29 10:42 20.82280 -17.05979 1978 ft 70 kts 15°
2026-04-29 10:42 20.82759 -17.05850 1897 ft 69 kts 15°
2026-04-29 10:43 20.83229 -17.05723 1818 ft 69 kts 15°
2026-04-29 10:43 20.83701 -17.05595 1727 ft 68 kts 15°
2026-04-29 10:43 20.84173 -17.05466 1632 ft 69 kts 14°
2026-04-29 10:43 20.84640 -17.05341 1543 ft 68 kts 15°
2026-04-29 10:44 20.85104 -17.05215 1450 ft 68 kts 15°
2026-04-29 10:44 20.85566 -17.05090 1359 ft 67 kts 16°
2026-04-29 10:44 20.86022 -17.04965 1274 ft 68 kts 16°
2026-04-29 10:44 20.86483 -17.04840 1185 ft 66 kts 16°
2026-04-29 10:45 20.86934 -17.04716 1092 ft 67 kts 15°
2026-04-29 10:45 20.87384 -17.04594 1004 ft 66 kts 15°
2026-04-29 10:45 20.87835 -17.04473 919 ft 66 kts 15°
2026-04-29 10:45 20.88286 -17.04349 828 ft 66 kts 15°
2026-04-29 10:46 20.88742 -17.04226 738 ft 67 kts 15°
2026-04-29 10:46 20.89189 -17.04104 648 ft 66 kts 15°
2026-04-29 10:46 20.89641 -17.03982 565 ft 67 kts 15°
2026-04-29 10:46 20.90094 -17.03859 478 ft 66 kts 15°
2026-04-29 10:47 20.90545 -17.03736 390 ft 66 kts 15°
2026-04-29 10:47 20.90989 -17.03615 303 ft 65 kts 14°
2026-04-29 10:47 20.91412 -17.03500 219 ft 59 kts 14°
2026-04-29 10:47 20.91802 -17.03390 169 ft 55 kts 17°
2026-04-29 10:48 20.92152 -17.03303 90 ft 45 kts 15°
2026-04-29 10:48 20.92394 -17.03238 25 ft 26 kts 17°
2026-04-29 10:48 20.92534 -17.03200 8 ft 15 kts 16°
2026-04-29 10:48 20.92609 -17.03179 8 ft 7 kts 16°
2026-04-29 10:49 20.92650 -17.03168 8 ft 4 kts 13°
2026-04-29 10:49 20.92685 -17.03160 9 ft 8 kts 17°
2026-04-29 10:49 20.92757 -17.03145 9 ft 8 kts 14°
2026-04-29 10:49 20.92823 -17.03133 10 ft 11 kts 338°
2026-04-29 10:50 20.92862 -17.03204 11 ft 9 kts 284°
2026-04-29 10:50 20.92873 -17.03248 11 ft 5 kts 285°
2026-04-29 10:50 20.92883 -17.03294 11 ft 5 kts 279°
2026-04-29 10:50 20.92874 -17.03329 11 ft 3 kts 250°
2026-04-29 10:51 20.92860 -17.03336 11 ft 0 kts 108°
2026-04-29 10:51 20.92862 -17.03336 11 ft 0 kts 20°